When you browse on this site, cookies collect data to enhance your experience and personalize the content and advertising you see.
Visit our Privacy Policy to learn more. By continuing to use the site, you agree to this use of cookies and data.
  • In Österreich
  • Länderverzeichnis
  • Für 7 Tage
  • Wassertemperatur
  • Wetterkarte
  • News
  • Widgets
  • user-avatar
    Anmelden

    Stündliche Wetter Rondônia

    Heute, 20 August, Dienstag

    Zeit Temperatur Niederschläge Wind Luftdruck Luftfeuchtigkeit
    00:00 +22°C° 0 mm 0 m/S 740 mmHg 81%
    01:00 +22°C° 0 mm 0 m/S 739 mmHg 82%
    02:00 +21°C° 0 mm 0 m/S 739 mmHg 86%
    03:00 +21°C° 0.2 mm 0 m/S 739 mmHg 87%
    04:00 +21°C° 0.2 mm 0 m/S 739 mmHg 88%
    05:00 +20°C° 0.2 mm 0 m/S 739 mmHg 90%
    06:00 +22°C° 0.3 mm 0 m/S 740 mmHg 86%
    07:00 +23°C° 0.3 mm 0 m/S 741 mmHg 82%
    08:00 +24°C° 0.3 mm 0 m/S 741 mmHg 78%
    09:00 +26°C° 0 mm 0 m/S 741 mmHg 69%
    10:00 +30°C° 0 mm 1 m/S 741 mmHg 60%
    11:00 +32°C° 0 mm 1 m/S 742 mmHg 50%
    12:00 +33°C° 0 mm 1 m/S 741 mmHg 48%
    13:00 +34°C° 0 mm 1 m/S 740 mmHg 45%
    14:00 +35°C° 0 mm 1 m/S 739 mmHg 42%
    15:00 +34°C° 0 mm 1 m/S 739 mmHg 42%
    16:00 +34°C° 0 mm 1 m/S 739 mmHg 43%
    17:00 +34°C° 0 mm 1 m/S 738 mmHg 43%
    18:00 +32°C° 0.1 mm 1 m/S 739 mmHg 51%
    19:00 +29°C° 0.1 mm 1 m/S 740 mmHg 59%
    20:00 +27°C° 0.1 mm 1 m/S 740 mmHg 67%
    21:00 +26°C° 0.1 mm 1 m/S 740 mmHg 72%
    22:00 +23°C° 0.1 mm 0 m/S 740 mmHg 77%
    23:00 +22°C° 0.1 mm 0 m/S 740 mmHg 82%

    Morgen, 21 August, Mittwoch

    Zeit Temperatur Niederschläge Wind Luftdruck Luftfeuchtigkeit
    00:00 +22°C° 0 mm 0 m/S 740 mmHg 83%
    01:00 +22°C° 0 mm 0 m/S 740 mmHg 84%
    02:00 +22°C° 0 mm 0 m/S 740 mmHg 85%
    03:00 +21°C° 0 mm 0 m/S 740 mmHg 86%
    04:00 +21°C° 0 mm 0 m/S 740 mmHg 87%
    05:00 +22°C° 0 mm 1 m/S 740 mmHg 88%
    06:00 +23°C° 0 mm 1 m/S 740 mmHg 82%
    07:00 +24°C° 0 mm 1 m/S 741 mmHg 75%
    08:00 +25°C° 0 mm 1 m/S 742 mmHg 68%
    09:00 +28°C° 0 mm 1 m/S 742 mmHg 57%
    10:00 +31°C° 0 mm 2 m/S 742 mmHg 45%
    11:00 +36°C° 0 mm 2 m/S 742 mmHg 34%
    12:00 +37°C° 0 mm 2 m/S 741 mmHg 30%
    13:00 +39°C° 0 mm 2 m/S 740 mmHg 26%
    14:00 +41°C° 0 mm 2 m/S 739 mmHg 23%
    15:00 +39°C° 0 mm 1 m/S 739 mmHg 25%
    16:00 +37°C° 0 mm 1 m/S 738 mmHg 27%
    17:00 +36°C° 0 mm 1 m/S 738 mmHg 30%
    18:00 +32°C° 0 mm 0 m/S 738 mmHg 32%
    19:00 +31°C° 0 mm 0 m/S 738 mmHg 35%
    20:00 +30°C° 0 mm 0 m/S 739 mmHg 37%
    21:00 +28°C° 0 mm 0 m/S 739 mmHg 41%
    22:00 +27°C° 0 mm 0 m/S 739 mmHg 44%
    23:00 +25°C° 0 mm 0 m/S 739 mmHg 48%

    übermorgen, 22 August, Donnerstag

    Zeit Temperatur Niederschläge Wind Luftdruck Luftfeuchtigkeit
    00:00 +25°C° 0 mm 0 m/S 739 mmHg 49%
    01:00 +24°C° 0 mm 0 m/S 739 mmHg 51%
    02:00 +23°C° 0 mm 0 m/S 738 mmHg 53%
    03:00 +23°C° 0 mm 0 m/S 739 mmHg 53%
    04:00 +23°C° 0 mm 0 m/S 739 mmHg 53%
    05:00 +23°C° 0 mm 0 m/S 739 mmHg 53%
    06:00 +24°C° 0 mm 0 m/S 739 mmHg 51%
    07:00 +25°C° 0 mm 0 m/S 740 mmHg 49%
    08:00 +26°C° 0 mm 0 m/S 740 mmHg 47%
    09:00 +28°C° 0 mm 0 m/S 740 mmHg 43%
    10:00 +31°C° 0 mm 1 m/S 740 mmHg 39%
    11:00 +33°C° 0 mm 1 m/S 740 mmHg 35%
    12:00 +36°C° 0 mm 1 m/S 740 mmHg 30%
    13:00 +40°C° 0 mm 1 m/S 739 mmHg 24%
    14:00 +40°C° 0 mm 0 m/S 738 mmHg 18%
    15:00 +38°C° 0 mm 0 m/S 738 mmHg 20%
    16:00 +36°C° 0 mm 0 m/S 738 mmHg 23%
    17:00 +35°C° 0 mm 0 m/S 737 mmHg 25%
    18:00 +32°C° 0 mm 0 m/S 738 mmHg 29%
    19:00 +30°C° 0 mm 0 m/S 738 mmHg 32%
    20:00 +28°C° 0 mm 0 m/S 738 mmHg 36%
    21:00 +27°C° 0 mm 0 m/S 739 mmHg 37%
    22:00 +27°C° 0 mm 0 m/S 739 mmHg 38%
    23:00 +27°C° 0 mm 0 m/S 739 mmHg 38%

    23 August, Freitag

    Zeit Temperatur Niederschläge Wind Luftdruck Luftfeuchtigkeit
    00:00 +26°C° 0 mm 0 m/S 739 mmHg 40%
    01:00 +25°C° 0 mm 0 m/S 739 mmHg 41%
    02:00 +25°C° 0 mm 0 m/S 738 mmHg 43%
    03:00 +25°C° 0 mm 0 m/S 738 mmHg 43%
    04:00 +25°C° 0 mm 0 m/S 738 mmHg 44%
    05:00 +24°C° 0 mm 0 m/S 738 mmHg 44%
    06:00 +26°C° 0 mm 0 m/S 739 mmHg 42%
    07:00 +27°C° 0 mm 0 m/S 740 mmHg 40%
    08:00 +28°C° 0 mm 0 m/S 740 mmHg 38%
    09:00 +32°C° 0 mm 1 m/S 740 mmHg 33%
    10:00 +36°C° 0 mm 2 m/S 741 mmHg 28%
    11:00 +38°C° 0 mm 3 m/S 741 mmHg 23%
    12:00 +39°C° 0 mm 3 m/S 740 mmHg 21%
    13:00 +40°C° 0 mm 2 m/S 739 mmHg 19%
    14:00 +41°C° 0 mm 2 m/S 739 mmHg 18%
    15:00 +40°C° 0 mm 2 m/S 738 mmHg 19%
    16:00 +40°C° 0 mm 1 m/S 738 mmHg 19%
    17:00 +39°C° 0 mm 1 m/S 737 mmHg 20%
    18:00 +35°C° 0 mm 1 m/S 737 mmHg 25%
    19:00 +32°C° 0 mm 1 m/S 738 mmHg 29%
    20:00 +28°C° 0 mm 0 m/S 738 mmHg 33%
    21:00 +27°C° 0 mm 0 m/S 738 mmHg 35%
    22:00 +26°C° 0 mm 0 m/S 738 mmHg 37%
    23:00 +25°C° 0 mm 0 m/S 738 mmHg 38%

    24 August, Samstag

    Zeit Temperatur Niederschläge Wind Luftdruck Luftfeuchtigkeit
    00:00 +25°C° 0 mm 0 m/S 738 mmHg 40%
    01:00 +24°C° 0 mm 0 m/S 737 mmHg 42%
    02:00 +23°C° 0 mm 0 m/S 737 mmHg 44%
    03:00 +23°C° 0 mm 0 m/S 737 mmHg 45%
    04:00 +22°C° 0 mm 0 m/S 737 mmHg 46%
    05:00 +22°C° 0 mm 0 m/S 737 mmHg 47%
    06:00 +23°C° 0 mm 0 m/S 738 mmHg 45%
    07:00 +27°C° 0 mm 1 m/S 738 mmHg 42%
    08:00 +28°C° 0 mm 1 m/S 739 mmHg 39%
    09:00 +32°C° 0 mm 1 m/S 739 mmHg 32%
    10:00 +37°C° 0 mm 2 m/S 740 mmHg 25%
    11:00 +40°C° 0 mm 2 m/S 740 mmHg 19%
    12:00 +41°C° 0 mm 2 m/S 739 mmHg 18%
    13:00 +42°C° 0 mm 1 m/S 738 mmHg 16%
    14:00 +42°C° 0 mm 1 m/S 737 mmHg 15%
    15:00 +41°C° 0 mm 1 m/S 736 mmHg 17%
    16:00 +40°C° 0 mm 1 m/S 736 mmHg 19%
    17:00 +36°C° 0 mm 0 m/S 735 mmHg 21%
    18:00 +34°C° 0 mm 0 m/S 736 mmHg 23%
    19:00 +32°C° 0 mm 0 m/S 736 mmHg 26%
    20:00 +30°C° 0 mm 0 m/S 736 mmHg 29%
    21:00 +29°C° 0 mm 0 m/S 736 mmHg 30%
    22:00 +28°C° 0 mm 0 m/S 737 mmHg 31%
    23:00 +28°C° 0 mm 0 m/S 737 mmHg 32%

    25 August, Sonntag

    Zeit Temperatur Niederschläge Wind Luftdruck Luftfeuchtigkeit
    00:00 +27°C° 0 mm 0 m/S 737 mmHg 34%
    01:00 +26°C° 0 mm 0 m/S 737 mmHg 37%
    02:00 +26°C° 0 mm 0 m/S 736 mmHg 39%
    03:00 +25°C° 0 mm 0 m/S 737 mmHg 43%
    04:00 +24°C° 0 mm 0 m/S 737 mmHg 46%
    05:00 +23°C° 0 mm 0 m/S 737 mmHg 50%
    06:00 +25°C° 0 mm 0 m/S 738 mmHg 48%
    07:00 +26°C° 0 mm 0 m/S 738 mmHg 46%
    08:00 +28°C° 0 mm 0 m/S 739 mmHg 45%
    09:00 +33°C° 0 mm 1 m/S 739 mmHg 39%
    10:00 +36°C° 0 mm 1 m/S 740 mmHg 33%
    11:00 +40°C° 0 mm 1 m/S 740 mmHg 28%
    12:00 +40°C° 0 mm 1 m/S 739 mmHg 27%
    13:00 +40°C° 0 mm 2 m/S 738 mmHg 26%
    14:00 +39°C° 0 mm 2 m/S 737 mmHg 25%
    15:00 +37°C° 0 mm 1 m/S 736 mmHg 28%
    16:00 +35°C° 0 mm 1 m/S 736 mmHg 30%
    17:00 +34°C° 0 mm 1 m/S 735 mmHg 33%
    18:00 +31°C° 0 mm 0 m/S 736 mmHg 34%
    19:00 +30°C° 0 mm 0 m/S 736 mmHg 35%
    20:00 +29°C° 0 mm 0 m/S 736 mmHg 37%
    21:00 +29°C° 0 mm 0 m/S 737 mmHg 37%
    22:00 +30°C° 0 mm 1 m/S 737 mmHg 38%
    23:00 +30°C° 0 mm 1 m/S 738 mmHg 39%
    Mehr zeigen